Year,Month,Day,Hour,Minute,Value (Times are PST for temperature in C)
2016,10,21,00,00,9.80
2016,10,21,00,01,9.80
2016,10,21,00,02,9.80
2016,10,21,00,03,9.80
2016,10,21,00,04,9.80
2016,10,21,00,05,9.80
2016,10,21,00,06,9.80
2016,10,21,00,07,9.80
2016,10,21,00,08,9.80
2016,10,21,00,09,9.80
2016,10,21,00,10,9.80
2016,10,21,00,11,9.80
2016,10,21,00,12,9.80
2016,10,21,00,13,9.80
2016,10,21,00,14,9.80
2016,10,21,00,15,9.80
2016,10,21,00,16,9.80
2016,10,21,00,17,9.70
2016,10,21,00,18,9.70
2016,10,21,00,19,9.70
2016,10,21,00,20,9.70
2016,10,21,00,21,9.70
2016,10,21,00,22,9.60
2016,10,21,00,23,9.60
2016,10,21,00,24,9.60
2016,10,21,00,25,9.60
2016,10,21,00,26,9.50
2016,10,21,00,27,9.50
2016,10,21,00,28,9.50
2016,10,21,00,29,9.40
2016,10,21,00,30,9.40
2016,10,21,00,31,9.40
2016,10,21,00,32,9.40
2016,10,21,00,33,9.40
2016,10,21,00,34,9.40
2016,10,21,00,35,9.40
2016,10,21,00,36,9.40
2016,10,21,00,37,9.40
2016,10,21,00,38,9.40
2016,10,21,00,39,9.40
2016,10,21,00,40,9.40
2016,10,21,00,41,9.30
2016,10,21,00,42,9.30
2016,10,21,00,43,9.30
2016,10,21,00,44,9.30
2016,10,21,00,45,9.30
2016,10,21,00,46,9.30
2016,10,21,00,47,9.30
2016,10,21,00,48,9.30
2016,10,21,00,49,9.30
2016,10,21,00,50,9.30
2016,10,21,00,51,9.20
2016,10,21,00,52,9.20
2016,10,21,00,53,9.20
2016,10,21,00,54,9.20
2016,10,21,00,55,9.30
2016,10,21,00,56,9.20
2016,10,21,00,57,9.20
2016,10,21,00,58,9.20
2016,10,21,00,59,9.20
2016,10,21,01,00,9.20
2016,10,21,01,01,9.10
2016,10,21,01,02,9.10
2016,10,21,01,03,9.10
2016,10,21,01,04,9.10
2016,10,21,01,05,9.10
2016,10,21,01,06,9.10
2016,10,21,01,07,9.10
2016,10,21,01,08,9.00
2016,10,21,01,09,9.00
2016,10,21,01,10,9.00
2016,10,21,01,11,9.00
2016,10,21,01,12,9.00
2016,10,21,01,13,9.00
2016,10,21,01,14,9.00
2016,10,21,01,15,9.00
2016,10,21,01,16,9.00
2016,10,21,01,17,9.00
2016,10,21,01,18,9.00
2016,10,21,01,19,9.00
2016,10,21,01,20,9.00
2016,10,21,01,21,9.00
2016,10,21,01,22,9.00
2016,10,21,01,23,9.00
2016,10,21,01,24,9.00
2016,10,21,01,25,9.00
2016,10,21,01,26,9.10
2016,10,21,01,27,9.10
2016,10,21,01,28,9.10
2016,10,21,01,29,9.10
2016,10,21,01,30,9.10
2016,10,21,01,31,9.20
2016,10,21,01,32,9.20
2016,10,21,01,33,9.20
2016,10,21,01,34,9.20
2016,10,21,01,35,9.20
2016,10,21,01,36,9.20
2016,10,21,01,37,9.30
2016,10,21,01,38,9.30
2016,10,21,01,39,9.30
2016,10,21,01,40,9.30
2016,10,21,01,41,9.30
2016,10,21,01,42,9.30
2016,10,21,01,43,9.40
2016,10,21,01,44,9.40
2016,10,21,01,45,9.40
2016,10,21,01,46,9.40
2016,10,21,01,47,9.40
2016,10,21,01,48,9.40
2016,10,21,01,49,9.40
2016,10,21,01,50,9.50
2016,10,21,01,51,9.50
2016,10,21,01,52,9.50
2016,10,21,01,53,9.50
2016,10,21,01,54,9.50
2016,10,21,01,55,9.50
2016,10,21,01,56,9.50
2016,10,21,01,57,9.50
2016,10,21,01,58,9.50
2016,10,21,01,59,9.50
2016,10,21,02,00,9.50
2016,10,21,02,01,9.60
2016,10,21,02,02,9.60
2016,10,21,02,03,9.60
2016,10,21,02,04,9.60
2016,10,21,02,05,9.60
2016,10,21,02,06,9.60
2016,10,21,02,07,9.60
2016,10,21,02,08,9.60
2016,10,21,02,09,9.60
2016,10,21,02,10,9.60
2016,10,21,02,11,9.70
2016,10,21,02,12,9.70
2016,10,21,02,13,9.70
2016,10,21,02,14,9.70
2016,10,21,02,15,9.70
2016,10,21,02,16,9.70
2016,10,21,02,17,9.70
2016,10,21,02,18,9.70
2016,10,21,02,19,9.70
2016,10,21,02,20,9.80
2016,10,21,02,21,9.80
2016,10,21,02,22,9.80
2016,10,21,02,23,9.80
2016,10,21,02,24,9.80
2016,10,21,02,25,9.80
2016,10,21,02,26,9.80
2016,10,21,02,27,9.80
2016,10,21,02,28,9.80
2016,10,21,02,29,9.80
2016,10,21,02,30,9.80
2016,10,21,02,31,9.80
2016,10,21,02,32,9.80
2016,10,21,02,33,9.80
2016,10,21,02,34,9.80
2016,10,21,02,35,9.80
2016,10,21,02,36,9.70
2016,10,21,02,37,9.70
2016,10,21,02,38,9.70
2016,10,21,02,39,9.70
2016,10,21,02,40,9.70
2016,10,21,02,41,9.70
2016,10,21,02,42,9.70
2016,10,21,02,43,9.70
2016,10,21,02,44,9.70
2016,10,21,02,45,9.70
2016,10,21,02,46,9.60
2016,10,21,02,47,9.60
2016,10,21,02,48,9.60
2016,10,21,02,49,9.60
2016,10,21,02,50,9.60
2016,10,21,02,51,9.60
2016,10,21,02,52,9.50
2016,10,21,02,53,9.50
2016,10,21,02,54,9.50
2016,10,21,02,55,9.40
2016,10,21,02,56,9.40
2016,10,21,02,57,9.40
2016,10,21,02,58,9.40
2016,10,21,02,59,9.40
2016,10,21,03,00,9.40
2016,10,21,03,01,9.40
2016,10,21,03,02,9.30
2016,10,21,03,03,9.30
2016,10,21,03,04,9.30
2016,10,21,03,05,9.30
2016,10,21,03,06,9.20
2016,10,21,03,07,9.20
2016,10,21,03,08,9.20
2016,10,21,03,09,9.20
2016,10,21,03,10,9.10
2016,10,21,03,11,9.10
2016,10,21,03,12,9.10
2016,10,21,03,13,9.00
2016,10,21,03,14,9.00
2016,10,21,03,15,9.00
2016,10,21,03,16,9.00
2016,10,21,03,17,9.00
2016,10,21,03,18,9.00
2016,10,21,03,19,9.00
2016,10,21,03,20,9.00
2016,10,21,03,21,9.00
2016,10,21,03,22,9.00
2016,10,21,03,23,9.00
2016,10,21,03,24,9.00
2016,10,21,03,25,9.00
2016,10,21,03,26,9.00
2016,10,21,03,27,9.00
2016,10,21,03,28,9.00
2016,10,21,03,29,9.00
2016,10,21,03,30,9.00
2016,10,21,03,31,9.10
2016,10,21,03,32,9.10
2016,10,21,03,33,9.10
2016,10,21,03,34,9.10
2016,10,21,03,35,9.10
2016,10,21,03,36,9.10
2016,10,21,03,37,9.00
2016,10,21,03,38,9.00
2016,10,21,03,39,9.00
2016,10,21,03,40,9.00
2016,10,21,03,41,9.00
2016,10,21,03,42,9.00
2016,10,21,03,43,9.00
2016,10,21,03,44,9.00
2016,10,21,03,45,9.00
2016,10,21,03,46,9.00
2016,10,21,03,47,9.00
2016,10,21,03,48,9.00
2016,10,21,03,49,9.00
2016,10,21,03,50,9.00
2016,10,21,03,51,9.00
2016,10,21,03,52,9.00
2016,10,21,03,53,9.10
2016,10,21,03,54,9.10
2016,10,21,03,55,9.10
2016,10,21,03,56,9.10
2016,10,21,03,57,9.20
2016,10,21,03,58,9.20
2016,10,21,03,59,9.20
2016,10,21,04,00,9.20
2016,10,21,04,01,9.20
2016,10,21,04,02,9.20
2016,10,21,04,03,9.20
2016,10,21,04,04,9.20
2016,10,21,04,05,9.20
2016,10,21,04,06,9.20
2016,10,21,04,07,9.20
2016,10,21,04,08,9.20
2016,10,21,04,09,9.20
2016,10,21,04,10,9.20
2016,10,21,04,11,9.20
2016,10,21,04,12,9.20
2016,10,21,04,13,9.20
2016,10,21,04,14,9.20
2016,10,21,04,15,9.20
2016,10,21,04,16,9.30
2016,10,21,04,17,9.30
2016,10,21,04,18,9.30
2016,10,21,04,19,9.30
2016,10,21,04,20,9.30
2016,10,21,04,21,9.30
2016,10,21,04,22,9.30
2016,10,21,04,23,9.30
2016,10,21,04,24,9.30
2016,10,21,04,25,9.30
2016,10,21,04,26,9.30
2016,10,21,04,27,9.30
2016,10,21,04,28,9.30
2016,10,21,04,29,9.40
2016,10,21,04,30,9.40
2016,10,21,04,31,9.40
2016,10,21,04,32,9.40
2016,10,21,04,33,9.40
2016,10,21,04,34,9.40
2016,10,21,04,35,9.40
2016,10,21,04,36,9.40
2016,10,21,04,37,9.40
2016,10,21,04,38,9.40
2016,10,21,04,39,9.40
2016,10,21,04,40,9.50
2016,10,21,04,41,9.50
2016,10,21,04,42,9.50
2016,10,21,04,43,9.50
2016,10,21,04,44,9.50
2016,10,21,04,45,9.60
2016,10,21,04,46,9.60
2016,10,21,04,47,9.60
2016,10,21,04,48,9.60
2016,10,21,04,49,9.60
2016,10,21,04,50,9.60
2016,10,21,04,51,9.60
2016,10,21,04,52,9.60
2016,10,21,04,53,9.60
2016,10,21,04,54,9.60
2016,10,21,04,55,9.60
2016,10,21,04,56,9.60
2016,10,21,04,57,9.60
2016,10,21,04,58,9.60
2016,10,21,04,59,9.60
2016,10,21,05,00,9.60
2016,10,21,05,01,9.60
2016,10,21,05,02,9.60
2016,10,21,05,03,9.60
2016,10,21,05,04,9.60
2016,10,21,05,05,9.60
2016,10,21,05,06,9.60
2016,10,21,05,07,9.70
2016,10,21,05,08,9.70
2016,10,21,05,09,9.70
2016,10,21,05,10,9.70
2016,10,21,05,11,9.70
2016,10,21,05,12,9.70
2016,10,21,05,13,9.80
2016,10,21,05,14,9.80
2016,10,21,05,15,9.80
2016,10,21,05,16,9.80
2016,10,21,05,17,9.80
2016,10,21,05,18,9.80
2016,10,21,05,19,9.80
2016,10,21,05,20,9.80
2016,10,21,05,21,9.80
2016,10,21,05,22,9.80
2016,10,21,05,23,9.80
2016,10,21,05,24,9.80
2016,10,21,05,25,9.80
2016,10,21,05,26,9.80
2016,10,21,05,27,9.80
2016,10,21,05,28,9.80
2016,10,21,05,29,9.80
2016,10,21,05,30,9.80
2016,10,21,05,31,9.80
2016,10,21,05,32,9.80
2016,10,21,05,33,9.80
2016,10,21,05,34,9.80
2016,10,21,05,35,9.80
2016,10,21,05,36,9.80
2016,10,21,05,37,9.80
2016,10,21,05,38,9.80
2016,10,21,05,39,9.80
2016,10,21,05,40,9.80
2016,10,21,05,41,9.80
2016,10,21,05,42,9.80
2016,10,21,05,43,9.80
2016,10,21,05,44,9.80
2016,10,21,05,45,9.80
2016,10,21,05,46,9.80
2016,10,21,05,47,9.80
2016,10,21,05,48,9.90
2016,10,21,05,49,9.90
2016,10,21,05,50,9.90
2016,10,21,05,51,9.90
2016,10,21,05,52,9.90
2016,10,21,05,53,9.90
2016,10,21,05,54,9.90
2016,10,21,05,55,9.90
2016,10,21,05,56,9.90
2016,10,21,05,57,10.00
2016,10,21,05,58,10.00
2016,10,21,05,59,10.00
2016,10,21,06,00,10.00
2016,10,21,06,01,10.10
2016,10,21,06,02,10.10
2016,10,21,06,03,10.10
2016,10,21,06,04,10.10
2016,10,21,06,05,10.10
2016,10,21,06,06,10.10
2016,10,21,06,07,10.20
2016,10,21,06,08,10.20
2016,10,21,06,09,10.20
2016,10,21,06,10,10.20
2016,10,21,06,11,10.20
2016,10,21,06,12,10.30
2016,10,21,06,13,10.30
2016,10,21,06,14,10.30
2016,10,21,06,15,10.30
2016,10,21,06,16,10.30
2016,10,21,06,17,10.40
2016,10,21,06,18,10.40
2016,10,21,06,19,10.40
2016,10,21,06,20,10.40
2016,10,21,06,21,10.30
2016,10,21,06,22,10.30
2016,10,21,06,23,10.30
2016,10,21,06,24,10.30
2016,10,21,06,25,10.30
2016,10,21,06,26,10.30
2016,10,21,06,27,10.30
2016,10,21,06,28,10.30
2016,10,21,06,29,10.30
2016,10,21,06,30,10.40
2016,10,21,06,31,10.40
2016,10,21,06,32,10.40
2016,10,21,06,33,10.40
2016,10,21,06,34,10.40
2016,10,21,06,35,10.50
2016,10,21,06,36,10.50
2016,10,21,06,37,10.50
2016,10,21,06,38,10.60
2016,10,21,06,39,10.50
2016,10,21,06,40,10.60
2016,10,21,06,41,10.60
2016,10,21,06,42,10.60
2016,10,21,06,43,10.60
2016,10,21,06,44,10.60
2016,10,21,06,45,10.60
2016,10,21,06,46,10.50
2016,10,21,06,47,10.50
2016,10,21,06,48,10.50
2016,10,21,06,49,10.50
2016,10,21,06,50,10.50
2016,10,21,06,51,10.50
2016,10,21,06,52,10.50
2016,10,21,06,53,10.50
2016,10,21,06,54,10.40
2016,10,21,06,55,10.40
2016,10,21,06,56,10.40
2016,10,21,06,57,10.40
2016,10,21,06,58,10.40
2016,10,21,06,59,10.40
2016,10,21,07,00,10.40
2016,10,21,07,01,10.40
2016,10,21,07,02,10.40
2016,10,21,07,03,10.30
2016,10,21,07,04,10.30
2016,10,21,07,05,10.30
2016,10,21,07,06,10.30
2016,10,21,07,07,10.30
2016,10,21,07,08,10.30
2016,10,21,07,09,10.30
2016,10,21,07,10,10.30
2016,10,21,07,11,10.30
2016,10,21,07,12,10.20
2016,10,21,07,13,10.20
2016,10,21,07,14,10.20
2016,10,21,07,15,10.20
2016,10,21,07,16,10.20
2016,10,21,07,17,10.20
2016,10,21,07,18,10.20
2016,10,21,07,19,10.20
2016,10,21,07,20,10.20
2016,10,21,07,21,10.20
2016,10,21,07,22,10.10
2016,10,21,07,23,10.10
2016,10,21,07,24,10.10
2016,10,21,07,25,10.10
2016,10,21,07,26,10.10
2016,10,21,07,27,10.10
2016,10,21,07,28,10.10
2016,10,21,07,29,10.10
2016,10,21,07,30,10.10
2016,10,21,07,31,10.10
2016,10,21,07,32,10.10
2016,10,21,07,33,10.10
2016,10,21,07,34,10.10
2016,10,21,07,35,10.10
2016,10,21,07,36,10.10
2016,10,21,07,37,10.00
2016,10,21,07,38,10.00
2016,10,21,07,39,10.00
2016,10,21,07,40,10.00
2016,10,21,07,41,10.00
2016,10,21,07,42,10.00
2016,10,21,07,43,10.00
2016,10,21,07,44,10.00
2016,10,21,07,45,10.00
2016,10,21,07,46,10.00
2016,10,21,07,47,10.00
2016,10,21,07,48,10.00
2016,10,21,07,49,9.90
2016,10,21,07,50,9.90
2016,10,21,07,51,9.90
2016,10,21,07,52,9.90
2016,10,21,07,53,9.90
2016,10,21,07,54,9.90
2016,10,21,07,55,9.90
2016,10,21,07,56,9.90
2016,10,21,07,57,9.90
2016,10,21,07,58,9.90
2016,10,21,07,59,9.90
2016,10,21,08,00,9.90
2016,10,21,08,01,9.90
2016,10,21,08,02,9.90
2016,10,21,08,03,9.90
2016,10,21,08,04,9.90
2016,10,21,08,05,9.90
2016,10,21,08,06,9.80
2016,10,21,08,07,9.80
2016,10,21,08,08,9.90
2016,10,21,08,09,9.90
2016,10,21,08,10,9.90
2016,10,21,08,11,9.90
2016,10,21,08,12,9.90
2016,10,21,08,13,9.80
2016,10,21,08,14,9.90
2016,10,21,08,15,9.90
2016,10,21,08,16,9.80
2016,10,21,08,17,9.80
2016,10,21,08,18,9.90
2016,10,21,08,19,9.80
2016,10,21,08,20,9.80
2016,10,21,08,21,9.80
2016,10,21,08,22,9.90
2016,10,21,08,23,9.90
2016,10,21,08,24,9.90
2016,10,21,08,25,9.90
2016,10,21,08,26,9.90
2016,10,21,08,27,9.90
2016,10,21,08,28,9.90
2016,10,21,08,29,9.90
2016,10,21,08,30,9.90
2016,10,21,08,31,9.90
2016,10,21,08,32,9.90
2016,10,21,08,33,9.90
2016,10,21,08,34,9.90
2016,10,21,08,35,9.90
2016,10,21,08,36,9.90
2016,10,21,08,37,9.90
2016,10,21,08,38,9.90
2016,10,21,08,39,9.80
2016,10,21,08,40,9.80
2016,10,21,08,41,9.80
2016,10,21,08,42,9.80
2016,10,21,08,43,9.80
2016,10,21,08,44,9.80
2016,10,21,08,45,9.80
2016,10,21,08,46,9.80
2016,10,21,08,47,9.80
2016,10,21,08,48,9.80
2016,10,21,08,49,9.80
2016,10,21,08,50,9.80
2016,10,21,08,51,9.80
2016,10,21,08,52,9.80
2016,10,21,08,53,9.80
2016,10,21,08,54,9.80
2016,10,21,08,55,9.80
2016,10,21,08,56,9.80
2016,10,21,08,57,9.80
2016,10,21,08,58,9.80
2016,10,21,08,59,9.90
2016,10,21,09,00,9.90
2016,10,21,09,01,9.90
2016,10,21,09,02,9.90
2016,10,21,09,03,9.90
2016,10,21,09,04,9.90
2016,10,21,09,05,9.90
2016,10,21,09,06,9.90
2016,10,21,09,07,9.90
2016,10,21,09,08,9.90
2016,10,21,09,09,9.90
2016,10,21,09,10,9.90
2016,10,21,09,11,9.90
2016,10,21,09,12,9.90
2016,10,21,09,13,9.90
2016,10,21,09,14,9.90
2016,10,21,09,15,9.90
2016,10,21,09,16,9.90
2016,10,21,09,17,9.90
2016,10,21,09,18,9.90
2016,10,21,09,19,9.90
2016,10,21,09,20,9.90
2016,10,21,09,21,9.90
2016,10,21,09,22,9.90
2016,10,21,09,23,9.90
2016,10,21,09,24,9.90
2016,10,21,09,25,9.90
2016,10,21,09,26,10.00
2016,10,21,09,27,10.00
2016,10,21,09,28,10.00
2016,10,21,09,29,10.00
2016,10,21,09,30,10.00
2016,10,21,09,31,9.90
2016,10,21,09,32,9.90
2016,10,21,09,33,9.90
2016,10,21,09,34,9.90
2016,10,21,09,35,9.80
2016,10,21,09,36,9.80
2016,10,21,09,37,9.80
2016,10,21,09,38,9.80
2016,10,21,09,39,9.80
2016,10,21,09,40,9.80
2016,10,21,09,41,9.80
2016,10,21,09,42,9.80
2016,10,21,09,43,9.80
2016,10,21,09,44,9.80
2016,10,21,09,45,9.80
2016,10,21,09,46,9.80
2016,10,21,09,47,9.80
2016,10,21,09,48,9.80
2016,10,21,09,49,9.80
2016,10,21,09,50,9.80
2016,10,21,09,51,9.80
2016,10,21,09,52,9.80
2016,10,21,09,53,9.80
2016,10,21,09,54,9.80
2016,10,21,09,55,9.80
2016,10,21,09,56,9.80
2016,10,21,09,57,9.80
2016,10,21,09,58,9.80
2016,10,21,09,59,9.90
2016,10,21,10,00,9.90
2016,10,21,10,01,9.90
2016,10,21,10,02,9.90
2016,10,21,10,03,9.90
2016,10,21,10,04,9.90
2016,10,21,10,05,9.90
2016,10,21,10,06,9.90
2016,10,21,10,07,9.90
2016,10,21,10,08,9.90
2016,10,21,10,09,10.00
2016,10,21,10,10,10.00
2016,10,21,10,11,10.00
2016,10,21,10,12,10.00
2016,10,21,10,13,10.00
2016,10,21,10,14,10.10
2016,10,21,10,15,10.10
2016,10,21,10,16,10.10
2016,10,21,10,17,10.10
2016,10,21,10,18,10.10
2016,10,21,10,19,10.10
2016,10,21,10,20,10.10
2016,10,21,10,21,10.20
2016,10,21,10,22,10.20
2016,10,21,10,23,10.20
2016,10,21,10,24,10.20
2016,10,21,10,25,10.20
2016,10,21,10,26,10.20
2016,10,21,10,27,10.30
2016,10,21,10,28,10.30
2016,10,21,10,29,10.30
2016,10,21,10,30,10.30
2016,10,21,10,31,10.40
2016,10,21,10,32,10.40
2016,10,21,10,33,10.40
2016,10,21,10,34,10.40
2016,10,21,10,35,10.40
2016,10,21,10,36,10.50
2016,10,21,10,37,10.50
2016,10,21,10,38,10.50
2016,10,21,10,39,10.60
2016,10,21,10,40,10.60
2016,10,21,10,41,10.60
2016,10,21,10,42,10.60
2016,10,21,10,43,10.70
2016,10,21,10,44,10.70
2016,10,21,10,45,10.70
2016,10,21,10,46,10.70
2016,10,21,10,47,10.70
2016,10,21,10,48,10.70
2016,10,21,10,49,10.80
2016,10,21,10,50,10.80
2016,10,21,10,51,10.80
2016,10,21,10,52,10.80
2016,10,21,10,53,10.80
2016,10,21,10,54,10.90
2016,10,21,10,55,10.90
2016,10,21,10,56,10.90
2016,10,21,10,57,10.90
2016,10,21,10,58,10.90
2016,10,21,10,59,10.90
2016,10,21,11,00,10.90
2016,10,21,11,01,10.90
2016,10,21,11,02,10.90
2016,10,21,11,03,10.90
2016,10,21,11,04,10.90
2016,10,21,11,05,10.90
2016,10,21,11,06,10.90
2016,10,21,11,07,11.00
2016,10,21,11,08,11.00
2016,10,21,11,09,11.00
2016,10,21,11,10,11.10
2016,10,21,11,11,11.10
2016,10,21,11,12,11.10
2016,10,21,11,13,11.10
2016,10,21,11,14,11.10
2016,10,21,11,15,11.10
2016,10,21,11,16,11.10
2016,10,21,11,17,11.20
2016,10,21,11,18,11.20
2016,10,21,11,19,11.20
2016,10,21,11,20,11.30
2016,10,21,11,21,11.30
2016,10,21,11,22,11.30
2016,10,21,11,23,11.30
2016,10,21,11,24,11.40
2016,10,21,11,25,11.40
2016,10,21,11,26,11.40
2016,10,21,11,27,11.40
2016,10,21,11,28,11.50
2016,10,21,11,29,11.50
2016,10,21,11,30,11.50
2016,10,21,11,31,11.50
2016,10,21,11,32,11.60
2016,10,21,11,33,11.50
2016,10,21,11,34,11.50
2016,10,21,11,35,11.60
2016,10,21,11,36,11.60
2016,10,21,11,37,11.60
2016,10,21,11,38,11.60
2016,10,21,11,39,11.60
2016,10,21,11,40,11.60
2016,10,21,11,41,11.60
2016,10,21,11,42,11.60
2016,10,21,11,43,11.60
2016,10,21,11,44,11.60
2016,10,21,11,45,11.60
2016,10,21,11,46,11.60
2016,10,21,11,47,11.60
2016,10,21,11,48,11.60
2016,10,21,11,49,11.60
2016,10,21,11,50,11.60
2016,10,21,11,51,11.60
2016,10,21,11,52,11.60
2016,10,21,11,53,11.70
2016,10,21,11,54,11.70
2016,10,21,11,55,11.70
2016,10,21,11,56,11.70
2016,10,21,11,57,11.70
2016,10,21,11,58,11.70
2016,10,21,11,59,11.70
2016,10,21,12,00,11.70
2016,10,21,12,01,11.70
2016,10,21,12,02,11.70
2016,10,21,12,03,11.70
2016,10,21,12,04,11.80
2016,10,21,12,05,11.80
2016,10,21,12,06,11.80
2016,10,21,12,07,11.80
2016,10,21,12,08,11.80
2016,10,21,12,09,11.80
2016,10,21,12,10,11.80
2016,10,21,12,11,11.80
2016,10,21,12,12,11.80
2016,10,21,12,13,11.90
2016,10,21,12,14,11.90
2016,10,21,12,15,11.90
2016,10,21,12,16,11.90
2016,10,21,12,17,12.00
2016,10,21,12,18,12.00
2016,10,21,12,19,12.00
2016,10,21,12,20,12.10
2016,10,21,12,21,12.10
2016,10,21,12,22,12.10
2016,10,21,12,23,12.10
2016,10,21,12,24,12.10
2016,10,21,12,25,12.20
2016,10,21,12,26,12.20
2016,10,21,12,27,12.20
2016,10,21,12,28,12.20
2016,10,21,12,29,12.20
2016,10,21,12,30,12.20
2016,10,21,12,31,12.20
2016,10,21,12,32,12.20
2016,10,21,12,33,12.20
2016,10,21,12,34,12.20
2016,10,21,12,35,12.20
2016,10,21,12,36,12.20
2016,10,21,12,37,12.20
2016,10,21,12,38,12.20
2016,10,21,12,39,12.20
2016,10,21,12,40,12.20
2016,10,21,12,41,12.20
2016,10,21,12,42,12.20
2016,10,21,12,43,12.20
2016,10,21,12,44,12.20
2016,10,21,12,45,12.20
2016,10,21,12,46,12.20
2016,10,21,12,47,12.10
2016,10,21,12,48,12.10
2016,10,21,12,49,12.10
2016,10,21,12,50,12.10
2016,10,21,12,51,12.10
2016,10,21,12,52,12.10
2016,10,21,12,53,12.10
2016,10,21,12,54,12.10
2016,10,21,12,55,12.10
2016,10,21,12,56,12.10
2016,10,21,12,57,12.10
2016,10,21,12,58,12.10
2016,10,21,12,59,12.10
2016,10,21,13,00,12.10
2016,10,21,13,01,12.10
2016,10,21,13,02,12.20
2016,10,21,13,03,12.20
2016,10,21,13,04,12.20
2016,10,21,13,05,12.20
2016,10,21,13,06,12.20
2016,10,21,13,07,12.20
2016,10,21,13,08,12.30
2016,10,21,13,09,12.30
2016,10,21,13,10,12.30
2016,10,21,13,11,12.30
2016,10,21,13,12,12.30
2016,10,21,13,13,12.30
2016,10,21,13,14,12.30
2016,10,21,13,15,12.30
2016,10,21,13,16,12.30
2016,10,21,13,17,12.30
2016,10,21,13,18,12.40
2016,10,21,13,19,12.40
2016,10,21,13,20,12.40
2016,10,21,13,21,12.40
2016,10,21,13,22,12.40
2016,10,21,13,23,12.40
2016,10,21,13,24,12.40
2016,10,21,13,25,12.40
2016,10,21,13,26,12.40
2016,10,21,13,27,12.40
2016,10,21,13,28,12.30
2016,10,21,13,29,12.30
2016,10,21,13,30,12.30
2016,10,21,13,31,12.30
2016,10,21,13,32,12.30
2016,10,21,13,33,12.30
2016,10,21,13,34,12.30
2016,10,21,13,35,12.30
2016,10,21,13,36,12.30
2016,10,21,13,37,12.30
2016,10,21,13,38,12.30
2016,10,21,13,39,12.30
2016,10,21,13,40,12.30
2016,10,21,13,41,12.30
2016,10,21,13,42,12.30
2016,10,21,13,43,12.30
2016,10,21,13,44,12.30
2016,10,21,13,45,12.30
2016,10,21,13,46,12.30
2016,10,21,13,47,12.20
2016,10,21,13,48,12.20
2016,10,21,13,49,12.20
2016,10,21,13,50,12.20
2016,10,21,13,51,12.20
2016,10,21,13,52,12.30
2016,10,21,13,53,12.30
2016,10,21,13,54,12.30
2016,10,21,13,55,12.30
2016,10,21,13,56,12.30
2016,10,21,13,57,12.30
2016,10,21,13,58,12.30
2016,10,21,13,59,12.30
2016,10,21,14,00,12.30
2016,10,21,14,01,12.30
2016,10,21,14,02,12.30
2016,10,21,14,03,12.30
2016,10,21,14,04,12.30
2016,10,21,14,05,12.30
2016,10,21,14,06,12.30
2016,10,21,14,07,12.30
2016,10,21,14,08,12.30
2016,10,21,14,09,12.30
2016,10,21,14,10,12.30
2016,10,21,14,11,12.20
2016,10,21,14,12,12.20
2016,10,21,14,13,12.30
2016,10,21,14,14,12.30
2016,10,21,14,15,12.30
2016,10,21,14,16,12.30
2016,10,21,14,17,12.30
2016,10,21,14,18,12.30
2016,10,21,14,19,12.20
2016,10,21,14,20,12.20
2016,10,21,14,21,12.20
2016,10,21,14,22,12.20
2016,10,21,14,23,12.20
2016,10,21,14,24,12.20
2016,10,21,14,25,12.20
2016,10,21,14,26,12.10
2016,10,21,14,27,12.10
2016,10,21,14,28,12.10
2016,10,21,14,29,12.10
2016,10,21,14,30,12.10
2016,10,21,14,31,12.10
2016,10,21,14,32,12.10
2016,10,21,14,33,12.10
2016,10,21,14,34,12.10
2016,10,21,14,35,12.00
2016,10,21,14,36,12.00
2016,10,21,14,37,12.00
2016,10,21,14,38,12.00
2016,10,21,14,39,12.00
2016,10,21,14,40,12.00
2016,10,21,14,41,12.00
2016,10,21,14,42,11.90
2016,10,21,14,43,11.90
2016,10,21,14,44,11.90
2016,10,21,14,45,11.90
2016,10,21,14,46,11.90
2016,10,21,14,47,11.90
2016,10,21,14,48,11.90
2016,10,21,14,49,11.80
2016,10,21,14,50,11.80
2016,10,21,14,51,11.80
2016,10,21,14,52,11.80
2016,10,21,14,53,11.80
2016,10,21,14,54,11.80
2016,10,21,14,55,11.80
2016,10,21,14,56,11.80
2016,10,21,14,57,11.80
2016,10,21,14,58,11.70
2016,10,21,14,59,11.70
2016,10,21,15,00,11.70
2016,10,21,15,01,11.70
2016,10,21,15,02,11.70
2016,10,21,15,03,11.60
2016,10,21,15,04,11.60
2016,10,21,15,05,11.60
2016,10,21,15,06,11.60
2016,10,21,15,07,11.60
2016,10,21,15,08,11.60
2016,10,21,15,09,11.60
2016,10,21,15,10,11.60
2016,10,21,15,11,11.60
2016,10,21,15,12,11.60
2016,10,21,15,13,11.60
2016,10,21,15,14,11.60
2016,10,21,15,15,11.60
2016,10,21,15,16,11.60
2016,10,21,15,17,11.60
2016,10,21,15,18,11.60
2016,10,21,15,19,11.60
2016,10,21,15,20,11.60
2016,10,21,15,21,11.60
2016,10,21,15,22,11.60
2016,10,21,15,23,11.60
2016,10,21,15,24,11.60
2016,10,21,15,25,11.60
2016,10,21,15,26,11.50
2016,10,21,15,27,11.50
2016,10,21,15,28,11.50
2016,10,21,15,29,11.50
2016,10,21,15,30,11.50
2016,10,21,15,31,11.60
2016,10,21,15,32,11.60
2016,10,21,15,33,11.60
2016,10,21,15,34,11.60
2016,10,21,15,35,11.60
2016,10,21,15,36,11.60
2016,10,21,15,37,11.60
2016,10,21,15,38,11.60
2016,10,21,15,39,11.60
2016,10,21,15,40,11.60
2016,10,21,15,41,11.60
2016,10,21,15,42,11.70
2016,10,21,15,43,11.70
2016,10,21,15,44,11.70
2016,10,21,15,45,11.70
2016,10,21,15,46,11.70
2016,10,21,15,47,11.70
2016,10,21,15,48,11.70
2016,10,21,15,49,11.70
2016,10,21,15,50,11.70
2016,10,21,15,51,11.70
2016,10,21,15,52,11.70
2016,10,21,15,53,11.70
2016,10,21,15,54,11.70
2016,10,21,15,55,11.70
2016,10,21,15,56,11.70
2016,10,21,15,57,11.80
2016,10,21,15,58,11.80
2016,10,21,15,59,11.80
2016,10,21,16,00,11.80
2016,10,21,16,01,11.80
2016,10,21,16,02,11.80
2016,10,21,16,03,11.80
2016,10,21,16,04,11.80
2016,10,21,16,05,11.80
2016,10,21,16,06,11.80
2016,10,21,16,07,11.90
2016,10,21,16,08,11.80
2016,10,21,16,09,11.80
2016,10,21,16,10,11.80
2016,10,21,16,11,11.80
2016,10,21,16,12,11.70
2016,10,21,16,13,11.70
2016,10,21,16,14,11.60
2016,10,21,16,15,11.60
2016,10,21,16,16,11.60
2016,10,21,16,17,11.50
2016,10,21,16,18,11.50
2016,10,21,16,19,11.40
2016,10,21,16,20,11.40
2016,10,21,16,21,11.40
2016,10,21,16,22,11.40
2016,10,21,16,23,11.40
2016,10,21,16,24,11.30
2016,10,21,16,25,11.30
2016,10,21,16,26,11.30
2016,10,21,16,27,11.30
2016,10,21,16,28,11.30
2016,10,21,16,29,11.30
2016,10,21,16,30,11.30
2016,10,21,16,31,11.20
2016,10,21,16,32,11.20
2016,10,21,16,33,11.20
2016,10,21,16,34,11.20
2016,10,21,16,35,11.20
2016,10,21,16,36,11.10
2016,10,21,16,37,11.10
2016,10,21,16,38,11.10
2016,10,21,16,39,11.10
2016,10,21,16,40,11.10
2016,10,21,16,41,11.10
2016,10,21,16,42,11.10
2016,10,21,16,43,11.10
2016,10,21,16,44,11.10
2016,10,21,16,45,11.10
2016,10,21,16,46,11.10
2016,10,21,16,47,11.10
2016,10,21,16,48,11.10
2016,10,21,16,49,11.10
2016,10,21,16,50,11.10
2016,10,21,16,51,11.10
2016,10,21,16,52,11.10
2016,10,21,16,53,11.10
2016,10,21,16,54,11.10
2016,10,21,16,55,11.10
2016,10,21,16,56,11.10
2016,10,21,16,57,11.10
2016,10,21,16,58,11.10
2016,10,21,16,59,11.10
2016,10,21,17,00,11.10
2016,10,21,17,01,11.10
2016,10,21,17,02,11.10
2016,10,21,17,03,11.10
2016,10,21,17,04,11.10
2016,10,21,17,05,11.20
2016,10,21,17,06,11.20
2016,10,21,17,07,11.20
2016,10,21,17,08,11.20
2016,10,21,17,09,11.20
2016,10,21,17,10,11.20
2016,10,21,17,11,11.20
2016,10,21,17,12,11.20
2016,10,21,17,13,11.20
2016,10,21,17,14,11.10
2016,10,21,17,15,11.10
2016,10,21,17,16,11.10
2016,10,21,17,17,11.10
2016,10,21,17,18,11.10
2016,10,21,17,19,11.10
2016,10,21,17,20,11.10
2016,10,21,17,21,11.10
2016,10,21,17,22,11.10
2016,10,21,17,23,11.10
2016,10,21,17,24,11.10
2016,10,21,17,25,11.10
2016,10,21,17,26,11.10
2016,10,21,17,27,11.10
2016,10,21,17,28,11.10
2016,10,21,17,29,11.10
2016,10,21,17,30,11.10
2016,10,21,17,31,11.10
2016,10,21,17,32,11.10
2016,10,21,17,33,11.10
2016,10,21,17,34,11.10
2016,10,21,17,35,11.10
2016,10,21,17,36,11.10
2016,10,21,17,37,11.10
2016,10,21,17,38,11.10
2016,10,21,17,39,11.10
2016,10,21,17,40,11.10